[[{"header":{"parameterUnit":"m.s-1","parameterCategory":1,"la1":30.2991,"la2":30.254,"lo1":-89.0895,"lo2":-89.0444,"dy":0.0017,"dx":0.0017,"nx":28,"ny":28,"refTime":"2024-12-03T03:00:00:Z","depth":0,"parameterNumber":2,"parameterNumberName":"U-component_of_WINDS"},"data":[0,0,0,0,0,0,0,0,0,0,0,0,0,0,0,0,0,0,0,0,0,0,0,0,0,0,0,0,0,0,0,0,0,0,0,0,0,0,0,0,0,0,0,0,0,0,0,0,0,0,0,0,0,0,0,0,0,0,-4.1961,-4.1962,0,-4.2035,-4.2036,-4.2037,-4.1955,-4.1952,-4.1949,-4.1946,-4.202,-4.2024,-4.2029,0,0,0,0,0,0,0,0,0,0,0,0,0,-4.1747,-4.1751,-4.1961,-4.1962,-4.1963,-4.2035,-4.2036,-4.2037,-4.1955,-4.1952,-4.1948,-4.1944,-4.2018,-4.2024,-4.203,0,0,0,0,0,0,0,0,0,0,0,0,0,-4.1832,-4.1753,-4.1961,-4.1931,-4.1929,-4.2035,-4.2036,-4.2037,-4.1956,-4.1951,-4.1947,-4.1942,-4.2016,-4.2023,-4.203,-4.2169,0,0,-4.2053,-4.2056,0,0,0,0,0,0,0,0,-4.1827,-4.184,-4.1934,-4.1933,-4.1931,-4.1981,-4.1988,-4.2082,-4.1957,-4.1946,-4.1946,-4.194,-4.201,-4.2018,-4.2042,-4.2173,-4.2176,-4.2053,-4.2058,-4.2061,-4.2063,0,0,0,0,0,0,0,-4.1822,-4.1837,-4.199,-4.1936,-4.1934,-4.1913,-4.192,-4.2005,-4.2003,-4.1946,-4.1941,-4.1951,-4.2009,-4.2035,-4.2043,-4.2177,-4.2053,-4.206,-4.2064,-4.2067,-4.2423,-4.2427,0,0,0,0,0,0,-4.1819,-4.1832,-4.1988,-4.1993,-4.1867,-4.1921,-4.1928,-4.197,-4.2002,-4.2003,-4.1955,-4.1947,-4.2025,-4.2035,-4.2045,-4.2208,-4.2061,-4.2068,-4.2072,-4.2418,-4.2424,-4.2429,0,0,0,0,0,0,-4.1815,-4.1834,-4.1985,-4.1911,-4.1929,-4.1929,-4.1976,-4.1974,-4.2,-4.2008,-4.2007,-4.1982,-4.2022,-4.2035,-4.2139,-4.2209,-4.2071,-4.2078,-4.2412,-4.2419,-4.2426,-4.2535,0,0,0,0,0,0,-4.1809,-4.1833,-4.1886,-4.1913,-4.1933,-4.2078,-4.1981,-4.1979,-4.2013,-4.2003,-4.2034,-4.2034,-4.2019,-4.2128,-4.2146,-4.2217,-4.2083,-4.2405,-4.2415,-4.2424,-4.2525,-4.2545,-4.2562,0,0,0,0,0,-4.1802,-4.1914,-4.1889,-4.1909,-4.1999,-4.2082,-4.2093,-4.2074,-4.2019,-4.2072,-4.2077,-4.2034,-4.2199,-4.2139,-4.2159,-4.2233,-4.2401,-4.2412,-4.2423,-4.2516,-4.2541,-4.2562,0,0,0,0,0,0,-4.1895,-4.1917,-4.189,-4.2014,-4.2047,-4.2068,-4.2134,-4.2101,-4.215,-4.2139,-4.2112,-4.2119,-4.2229,-4.2242,-4.2174,-4.2368,-4.2291,-4.2307,-4.2355,-4.2379,-4.2397,-4.239,-4.209,0,0,0,0,0,-4.193,-4.1997,-4.2012,-4.212,-4.2138,-4.2134,-4.2169,-4.2151,-4.2184,-4.2197,-4.221,-4.2243,-4.2302,-4.2341,-4.2397,-4.2527,-4.2531,-4.2588,-4.2607,-4.2622,-4.2635,-4.2703,-4.2727,-4.2466,-4.2466,-4.2466,0,0,-4.2003,-4.2023,-4.2066,-4.2139,-4.2162,-4.223,-4.2146,-4.2221,-4.2271,-4.2208,-4.2306,-4.2317,-4.2352,-4.2469,-4.2521,-4.2483,-4.2709,-4.2637,-4.2649,-4.2653,-4.2717,-4.2742,-4.2764,-4.2474,-4.2473,-4.2472,0,0,-4.217,-4.2193,-4.2284,-4.231,-4.2346,-4.2343,-4.2365,-4.2392,-4.2396,-4.2494,-4.2448,-4.2507,-4.261,-4.2636,-4.2663,-4.284,-4.2801,-4.2859,-4.2956,-4.3023,-4.3043,-4.3061,-4.3122,-4.3144,-4.2873,-4.2873,-4.2873,0,-4.2255,-4.2356,-4.2335,-4.2414,-4.2446,-4.2394,-4.2485,-4.251,-4.2563,-4.2586,-4.2543,-4.2671,-4.2691,-4.2812,-4.2855,-4.288,-4.2903,-4.2854,-4.3042,-4.306,-4.3077,-4.3134,-4.3157,-4.288,-4.2879,-4.2878,-4.2878,0,-4.2458,-4.2529,-4.2598,-4.2651,-4.2691,-4.2776,-4.2767,-4.281,-4.2789,-4.279,-4.289,-4.2913,-4.297,-4.2999,-4.2979,-4.3117,-4.3092,-4.3047,-4.2968,-4.3108,-4.3162,-4.3184,-4.2889,-4.2887,-4.2885,-4.2883,0,0,-4.2684,-4.2724,-4.2749,-4.2771,-4.2808,-4.2862,-4.2944,-4.3001,-4.3038,-4.3077,-4.3143,-4.3232,-4.319,-4.3221,-4.3204,-4.3263,-4.3399,-4.3209,-4.321,-4.3241,-4.3549,-4.3581,-4.3607,-4.3374,-4.3378,-4.3382,-4.3545,0,-4.2849,-4.2991,-4.2975,-4.311,-4.3174,-4.3125,-4.3196,-4.3226,-4.323,-4.3284,-4.3287,-4.335,-4.3291,-4.3309,-4.3365,-4.337,-4.3459,-4.3359,-4.3434,-4.3437,-4.3423,-4.3635,-4.367,-4.3823,-4.3566,-4.357,-4.3573,0,-4.306,-4.3106,-4.3248,-4.3274,-4.33,-4.3364,-4.3414,-4.3468,-4.35,-4.3498,-4.3533,-4.3506,-4.3587,-4.3509,-4.362,-4.3551,-4.3582,-4.3589,-4.3595,-4.3598,-4.3511,-4.3642,-4.3872,-4.3894,-4.3606,-4.3603,-4.3601,0,-4.3207,-4.3305,-4.3401,-4.3422,-4.3456,-4.3502,-4.3518,-4.3546,-4.3581,-4.3625,-4.3647,-4.3701,-4.3729,-4.3771,-4.3758,-4.3703,-4.3871,-4.3792,-4.3869,-4.387,-4.3904,-4.3902,-4.4139,-4.3929,-4.3929,-4.3929,-4.3928,0,-4.3391,-4.3479,-4.3467,-4.3527,-4.3623,-4.3604,-4.37,-4.371,-4.3735,-4.3795,-4.3757,-4.3814,-4.3795,-4.3851,-4.3842,-4.3933,-4.3947,-4.3947,-4.3943,-4.3948,-4.3948,-4.3965,-4.3953,-4.3935,-4.3933,-4.3932,-4.3931,0,-4.357,-4.3566,-4.3668,-4.3691,-4.3699,-4.3769,-4.3789,-4.3844,-4.3845,-4.3921,-4.3937,-4.3938,-4.4002,-4.3994,-4.4065,-4.4059,-4.4172,-4.4157,-4.4161,-4.4156,-4.4232,-4.4224,-4.4487,-4.4519,-4.4291,-4.4294,-4.4295,0,-4.3686,-4.3753,-4.3783,-4.382,-4.3839,-4.3901,-4.3936,-4.3919,-4.3958,-4.4,-4.405,-4.411,-4.4156,-4.426,-4.4266,-4.432,-4.4304,-4.4392,-4.4312,-4.4315,-4.4302,-4.4297,-4.4302,-4.4407,-4.441,-4.4412,-4.4414,0,-4.3892,-4.3887,-4.3939,-4.3992,-4.4035,-4.4076,-4.4112,-4.4145,-4.4131,-4.4176,-4.424,-4.4277,-4.4349,-4.4409,-4.4459,-4.4475,-4.4442,-4.444,-4.446,-4.4464,-4.4463,-4.4462,-4.4201,-4.4433,-4.4431,-4.4429,-4.4428,-4.4428,-4.4041,-4.4097,-4.4127,-4.4187,-4.4212,-4.4247,-4.43,-4.4307,-4.4361,-4.4418,-4.4405,-4.4477,-4.4508,-4.4572,-4.4593,-4.4649,-4.4616,-4.4646,-4.4653,-4.466,-4.4668,-4.4457,-4.4659,-4.4658,-4.4657,-4.4657,-4.4657,0,-4.4242,-4.4259,-4.4315,-4.4366,-4.4413,-4.438,-4.4418,-4.4459,-4.4523,-4.4554,-4.4601,-4.4674,-4.4732,-4.4744,-4.4798,-4.484,-4.4826,-4.4855,-4.485,-4.4854,-4.4695,-4.4671,-4.4865,-4.4865,-4.4865,-4.4865,-4.4865,-4.4865,-4.4352,-4.4445,-4.4443,-4.4547,-4.4563,-4.4634,-4.4658,-4.469,-4.4714,-4.4798,-4.4845,-4.4853,-4.4876,-4.4932,-4.4983,-4.4984,-4.5005,-4.5039,-4.5035,-4.4886,-4.4865,-4.4845,-4.4822,-4.5045,-4.5045,-4.5188,-4.5189,-4.519]},{"header":{"parameterUnit":"m.s-1","parameterCategory":1,"la1":30.2991,"la2":30.254,"lo1":-89.0895,"lo2":-89.0444,"dy":0.0017,"dx":0.0017,"nx":28,"ny":28,"refTime":"2024-12-03T03:00:00:Z","depth":0,"parameterNumber":3,"parameterNumberName":"V-component_of_WINDS"},"data":[0,0,0,0,0,0,0,0,0,0,0,0,0,0,0,0,0,0,0,0,0,0,0,0,0,0,0,0,0,0,0,0,0,0,0,0,0,0,0,0,0,0,0,0,0,0,0,0,0,0,0,0,0,0,0,0,0,0,-0.4282,-0.4282,0,-0.428,-0.428,-0.428,-0.4294,-0.4294,-0.4295,-0.4295,-0.4294,-0.4293,-0.4293,0,0,0,0,0,0,0,0,0,0,0,0,0,-0.4299,-0.4298,-0.4282,-0.4282,-0.4282,-0.428,-0.428,-0.428,-0.4294,-0.4294,-0.4295,-0.4295,-0.4294,-0.4293,-0.4293,0,0,0,0,0,0,0,0,0,0,0,0,0,-0.4294,-0.4298,-0.4282,-0.4289,-0.429,-0.428,-0.428,-0.428,-0.4294,-0.4295,-0.4295,-0.4296,-0.4294,-0.4294,-0.4293,-0.4277,0,0,-0.4291,-0.4291,0,0,0,0,0,0,0,0,-0.4294,-0.4293,-0.4288,-0.4289,-0.4289,-0.4288,-0.4285,-0.4279,-0.4294,-0.4292,-0.4295,-0.4296,-0.4291,-0.4291,-0.4289,-0.4277,-0.4277,-0.4291,-0.4291,-0.429,-0.429,0,0,0,0,0,0,0,-0.4294,-0.4293,-0.4281,-0.4288,-0.4289,-0.4292,-0.4292,-0.4284,-0.4289,-0.4292,-0.4293,-0.4293,-0.4292,-0.429,-0.4289,-0.4277,-0.4291,-0.429,-0.429,-0.429,-0.425,-0.4249,0,0,0,0,0,0,-0.4294,-0.4293,-0.4281,-0.4281,-0.4293,-0.4291,-0.4291,-0.4288,-0.4289,-0.4289,-0.4292,-0.4294,-0.4291,-0.429,-0.4289,-0.427,-0.429,-0.429,-0.4289,-0.4251,-0.425,-0.4249,0,0,0,0,0,0,-0.4294,-0.4292,-0.4282,-0.4288,-0.4286,-0.429,-0.4286,-0.4287,-0.4285,-0.4289,-0.429,-0.429,-0.4291,-0.429,-0.428,-0.427,-0.429,-0.4289,-0.4252,-0.425,-0.425,-0.4232,0,0,0,0,0,0,-0.4294,-0.4292,-0.4287,-0.4287,-0.4286,-0.4272,-0.4286,-0.4287,-0.4284,-0.4286,-0.4286,-0.4287,-0.4292,-0.428,-0.4279,-0.427,-0.4288,-0.4252,-0.4251,-0.425,-0.4233,-0.423,-0.4228,0,0,0,0,0,-0.4295,-0.4282,-0.4286,-0.4285,-0.4279,-0.4271,-0.4271,-0.4276,-0.4283,-0.4277,-0.4279,-0.4287,-0.4271,-0.4279,-0.4278,-0.4268,-0.4253,-0.4251,-0.425,-0.4234,-0.4231,-0.4228,0,0,0,0,0,0,-0.4281,-0.4283,-0.4287,-0.4274,-0.4272,-0.4274,-0.4266,-0.4272,-0.4268,-0.427,-0.4277,-0.4277,-0.4265,-0.4266,-0.4274,-0.4252,-0.4264,-0.4262,-0.4252,-0.4249,-0.4246,-0.4246,-0.4288,0,0,0,0,0,-0.4276,-0.427,-0.4272,-0.426,-0.4259,-0.4263,-0.426,-0.4264,-0.4262,-0.4262,-0.4263,-0.4261,-0.4256,-0.4253,-0.4248,-0.4233,-0.4233,-0.4226,-0.4223,-0.4221,-0.4219,-0.421,-0.4207,-0.4244,-0.4244,-0.4244,0,0,-0.4267,-0.4267,-0.4263,-0.4257,-0.4257,-0.425,-0.4262,-0.4255,-0.4249,-0.4261,-0.425,-0.4251,-0.425,-0.4237,-0.4231,-0.4237,-0.4208,-0.4219,-0.4217,-0.4216,-0.4208,-0.4204,-0.4201,-0.4243,-0.4243,-0.4243,0,0,-0.4246,-0.4246,-0.4236,-0.4234,-0.4232,-0.4235,-0.4232,-0.4232,-0.4233,-0.4222,-0.423,-0.4224,-0.4215,-0.4213,-0.4211,-0.4188,-0.4195,-0.4186,-0.4172,-0.4163,-0.416,-0.4158,-0.4149,-0.4145,-0.4184,-0.4184,-0.4184,0,-0.4235,-0.4225,-0.423,-0.4221,-0.4218,-0.4227,-0.4217,-0.4215,-0.4212,-0.421,-0.4216,-0.4204,-0.4204,-0.419,-0.4184,-0.4182,-0.4179,-0.4186,-0.416,-0.4158,-0.4155,-0.4147,-0.4143,-0.4183,-0.4184,-0.4184,-0.4184,0,-0.421,-0.4203,-0.4195,-0.4191,-0.4187,-0.4177,-0.4181,-0.4176,-0.418,-0.4182,-0.417,-0.417,-0.4165,-0.4162,-0.4166,-0.4148,-0.4152,-0.4159,-0.4171,-0.4151,-0.4143,-0.4139,-0.4182,-0.4182,-0.4183,-0.4183,0,0,-0.4182,-0.4179,-0.4176,-0.4174,-0.4172,-0.4166,-0.4157,-0.4151,-0.4146,-0.4144,-0.4135,-0.4127,-0.4133,-0.4131,-0.4135,-0.4127,-0.4107,-0.4135,-0.4135,-0.4129,-0.4086,-0.4081,-0.4077,-0.4111,-0.4111,-0.411,-0.4086,0,-0.4161,-0.4144,-0.4148,-0.4131,-0.4124,-0.4132,-0.4123,-0.4121,-0.4122,-0.4116,-0.4117,-0.411,-0.4119,-0.4117,-0.411,-0.4111,-0.4099,-0.4113,-0.4104,-0.4103,-0.4104,-0.4073,-0.4067,-0.4044,-0.4083,-0.4083,-0.4082,0,-0.4135,-0.413,-0.4112,-0.411,-0.4107,-0.4099,-0.4094,-0.4088,-0.4085,-0.4086,-0.4082,-0.4087,-0.4077,-0.4089,-0.4075,-0.4084,-0.4081,-0.408,-0.4079,-0.4079,-0.4092,-0.4071,-0.4037,-0.4034,-0.4078,-0.4078,-0.4078,0,-0.4115,-0.4104,-0.4091,-0.4089,-0.4087,-0.4081,-0.4079,-0.4077,-0.4073,-0.4068,-0.4065,-0.4059,-0.4056,-0.4051,-0.4054,-0.4062,-0.404,-0.4051,-0.404,-0.404,-0.4035,-0.4035,-0.4,-0.4033,-0.4033,-0.4033,-0.4033,0,-0.4091,-0.408,-0.4082,-0.4075,-0.4062,-0.4066,-0.4054,-0.4053,-0.4051,-0.4043,-0.4049,-0.4042,-0.4047,-0.404,-0.4042,-0.4029,-0.4028,-0.4028,-0.4029,-0.4028,-0.4028,-0.4026,-0.4027,-0.4032,-0.4032,-0.4032,-0.4033,0,-0.4067,-0.4068,-0.4055,-0.4053,-0.4052,-0.4043,-0.4041,-0.4034,-0.4034,-0.4024,-0.4022,-0.4023,-0.4015,-0.4018,-0.4009,-0.4011,-0.3995,-0.3998,-0.3996,-0.3996,-0.3984,-0.3985,-0.3946,-0.3941,-0.3978,-0.3977,-0.3977,0,-0.4051,-0.4043,-0.4039,-0.4034,-0.4032,-0.4024,-0.4019,-0.4023,-0.4018,-0.4013,-0.4006,-0.3998,-0.3992,-0.3978,-0.3979,-0.3972,-0.3974,-0.3961,-0.3974,-0.3972,-0.3974,-0.3974,-0.3973,-0.3959,-0.3958,-0.3958,-0.3958,0,-0.4023,-0.4024,-0.4017,-0.401,-0.4004,-0.3999,-0.3994,-0.399,-0.3993,-0.3987,-0.3978,-0.3973,-0.3964,-0.3956,-0.3949,-0.3948,-0.3953,-0.3954,-0.3951,-0.3949,-0.3948,-0.3948,-0.3989,-0.3955,-0.3955,-0.3955,-0.3955,-0.3956,-0.4003,-0.3995,-0.3991,-0.3983,-0.3979,-0.3974,-0.3967,-0.3966,-0.3959,-0.3951,-0.3953,-0.3943,-0.3939,-0.3931,-0.3929,-0.3921,-0.3926,-0.3921,-0.392,-0.3919,-0.3917,-0.3949,-0.3919,-0.392,-0.392,-0.392,-0.392,0,-0.3975,-0.3972,-0.3965,-0.3957,-0.395,-0.3955,-0.395,-0.3944,-0.3935,-0.3931,-0.3924,-0.3914,-0.3906,-0.3904,-0.3897,-0.389,-0.3893,-0.3888,-0.3889,-0.3888,-0.3913,-0.3917,-0.3886,-0.3886,-0.3886,-0.3886,-0.3887,-0.3887,-0.396,-0.3946,-0.3946,-0.3931,-0.3929,-0.3919,-0.3915,-0.391,-0.3907,-0.3894,-0.3887,-0.3886,-0.3883,-0.3875,-0.3868,-0.3867,-0.3864,-0.3859,-0.386,-0.3883,-0.3886,-0.389,-0.3893,-0.3858,-0.3858,-0.3835,-0.3835,-0.3835]}]]